Home > Weather > Gyumri > Past weeks

Flag for Armenia Weather for the Past 2 Weeks in Gyumri, Armenia

Now
34 °F

Fog.


Feels Like: 34 °F
Forecast: 38 / 59 °F
Wind: 1 mph from North

Location: Kars Airport

Current Time: Apr 29, 2016 at 9:08:25 AM

Latest Report: Apr 29, 2016 at 7:50 AM


Visibility: 0 mi

Pressure: 30.07 "Hg (24.84 "Hg at 1532m altitude)

Humidity: 100%

Dew Point: 34 °F

Location of GyumriLocation

Historic Weather in Gyumri — Graph

°F

Gyumri Temperature Yesterday

Maximum temperature yesterday: 61 °F (at 12:50 PM)
Minimum temperature yesterday: 37 °F (at 6:50 AM)
Average temperature yesterday: 46 °F

High & Low Weather Summary for the Past Weeks

 TemperatureHumidityPressure
High68 °F (Apr 20, 1:50 PM)100% (Apr 14, 7:50 AM)30.27 "Hg (Apr 14, 7:50 AM)
Low18 °F (Apr 23, 5:50 AM)15% (Apr 17, 12:50 PM)29.86 "Hg (Apr 25, 11:50 AM)
Average47 °F52%30.07 "Hg
* Reported Apr 14 7:50 AM — Apr 29 7:03 AM, Gyumri, Weather by CustomWeather, © 2016

Note: Actual official high and low records may vary slightly from our data, if they occured in-between our weather recording intervals... More about our weather records

Advertising

Gyumri Weather History for the Previous 24 Hours

Scroll right to see more
 ConditionsComfort  
Time TempWeatherWind HumidityBarometerVisibility
7:03 AM
Fri, Apr 29
32 °FIce fog.5 mph100%30.07 "Hg2 mi
5:50 AM34 °FClear.No wind100%30.07 "Hg10 mi
4:50 AM36 °FPassing clouds.No wind100%30.07 "HgN/A
3:50 AM37 °FPassing clouds.5 mph100%30.07 "HgN/A
2:50 AM37 °FPassing clouds.3 mph100%30.07 "HgN/A
1:50 AM37 °FPartly cloudy.3 mph100%30.07 "HgN/A
12:50 AM39 °FPassing clouds.1 mph100%30.09 "HgN/A
11:50 PM
Thu, Apr 28
39 °FThunderstorms. Partly cloudy.8 mph100%30.07 "HgN/A
10:50 PM39 °FThunderstorms. Partly cloudy.No wind100%30.12 "Hg6 mi
9:50 PM37 °FThunderstorms. Partly cloudy.14 mph100%30.12 "Hg5 mi
8:50 PM43 °FThunderstorms. Broken clouds.9 mph100%30.09 "Hg5 mi
7:50 PM45 °FThunderstorms. Broken clouds.13 mph93%30.04 "Hg6 mi
6:50 PM46 °FThunderstorms. Broken clouds.8 mph93%30.07 "Hg5 mi
5:50 PM48 °FThunderstorms. Broken clouds.5 mph87%30.09 "HgN/A
4:50 PM48 °FBroken clouds.9 mph76%30.04 "HgN/A
3:50 PM48 °FThunderstorms. Broken clouds.17 mph76%30.07 "HgN/A
3:03 PM52 °FHail. Broken clouds.14 mph67%30.07 "HgN/A
2:50 PM54 °FThunderstorms. Broken clouds.15 mph54%30.04 "HgN/A
1:50 PM57 °FBroken clouds.9 mph51%30.04 "HgN/A
12:50 PM61 °FBroken clouds.16 mph42%30.01 "HgN/A
11:50 AM54 °FBroken clouds.6 mph63%30.04 "HgN/A
10:50 AM52 °FPartly sunny.2 mph62%30.07 "HgN/A
9:50 AM50 °FPartly sunny.No wind62%30.07 "HgN/A
Weather by CustomWeather, © 2016

See weather overviewHow to use our weather pages